Погода в Тушине

Польша     51°36′18″N   19°32′32″E
темп.,
°C
ветер,
м/с
пор.,
м/с
влажн.,
%
обл.,
%
осадки,
мм/ч
давл.,
гПа
погр.,
м
3 марта, ср
ср301:00+2зюз01880 0.0 103322
04:00+2юз22890 0.0 103122
07:00+2юз22890 0.0 103122
10:00+7юз33660 0.0 1030264
13:00+10юз34550 0.0 1027433
16:00+11юз22600 0.0 102463
19:00+7юз34680 0.0 102326
22:00+5зюз47750 0.0 1021103
4 марта, чт
чт401:00+4зюз5118416 0.0 1020246
04:00+4зюз6128295 0.0 1017268
07:00+4з6149163 0.0 1016431
10:00+5з7108795 0.0 1015775
13:00+8зсз7117093 0.1 10141033
16:00+6сз7117536 0.0 1012842
19:00+2ссз588161 0.0 1013725
22:00+2сз3579100 0.0 1014386
5 марта, пт
пт501:00+1с5795100 0.1 1015429
04:00−1ссв5881100 0.1 1015619
07:00−2ссв5976100 0.1 1018625
10:00+1ссв576275 0.0 10191096
13:00+3с565082 0.1 10201580
16:00+2ссз454967 0.2 10211561
19:000сз336167 0.4 102462
22:00−1ссз23652 0.0 102585
6 марта, сб
сб601:00−1зсз346844 0.0 1027134
04:00−2сз477947 0.1 1028337
07:00−2сз478024 0.1 1030542
10:00+1ссз57470 0.0 10311415
13:00+2сз46385 0.0 10301864
16:00+2зсз474795 0.0 10301631
19:00−1зюз486269 0.0 1030184
22:00−2зюз510590 0.0 1030285
7 марта, вс
вс701:00−2зюз612590 0.0 1028398
04:00−1зюз713550 0.0 1026523
07:00−1зюз713538 0.0 1024631
10:00+2з9124984 0.0 10231110
13:00+4з9124854 0.0 10211288
16:00+4з7115629 0.0 10191245
19:00−1зсз367831 0.0 1019125
22:00−2зсз238815 0.0 101970